{"data":{"norad_id":58232,"intl_designator":"2023-171C","name":"STARLINK-30880","alt_names":[],"object_type":"PAYLOAD","status":"ACTIVE","operator":null,"country":"US","launch_date":"2023-11-08","launch_site_code":"AFETR","launch_vehicle":null,"mission":null,"orbit_class":"UNKNOWN","rcs_meters":null,"size_class":null,"mass_kg":null,"dimensions":null,"purposes":["comms"],"wikipedia_slug":null,"has_3d_model":false,"image_url":null,"decayed_at":null,"tle_current":{"epoch":"2026-05-25T05:21:54.732960Z","epoch_age_seconds":51610,"freshness":"FRESH","line1":"1 58232U 23171C   26145.22355015 -.00013211  00000+0 -47246-3 0  9990","line2":"2 58232  43.0026 212.6543 0001612 269.8377  90.2290 15.27507274141448","mean_motion":15.27507274,"eccentricity":0.0001612,"inclination_deg":43.0026,"raan_deg":212.6543,"arg_perigee_deg":269.8377,"mean_anomaly_deg":90.229,"bstar":-0.00047246,"rev_number":14144,"period_min":94.27123683864,"perigee_km":482.16081418251,"apogee_km":484.37293079099,"semimajor_km":6861.4038724867,"source":"CELESTRAK","updated_at":"2026-05-25T13:38:18.579529Z"}}}